Flag for Morocco Weather past 2 weeks in Rabat, Morocco

Now
75 °F

Scattered clouds.


Feels Like: 77 °F
Forecast: N/A
Wind: 12 mph from Northwest

Location: Rabat-Sale

Current Time: Jul 24, 2014 at 5:49:33 PM

Latest Report: Jul 24, 2014 at 5:00 PM


Visibility: 4 mi

Pressure: 29.89 "Hg

Humidity: 69%

Dew point: 64 °F

Location of RabatLocation

Historic Weather in Rabat — Graph

°F

Rabat temperature yesterday

Maximum temperature yesterday: 77 °F (at 2:00 PM)
Minimum temperature yesterday: 66 °F (at 3:30 AM)
Average temperature yesterday: 72 °F

Past Weeks' High & Low Weather Summary

 TemperatureHumidityPressure
High84 °F (Jul 16, 3:00 PM)94% (Jul 10, 3:00 AM)30.12 "Hg (Jul 10, 3:00 AM)
Low59 °F (Jul 14, 2:00 AM)42% (Jul 14, 5:30 PM)29.89 "Hg (Jul 9, 4:00 PM)
Average72 °F76%30.00 "Hg
* Reported Jul 9 4:00 PM — Jul 24 4:30 PM, Rabat, Weather by CustomWeather, © 2014

Note: Actual official high and low records may vary slightly from our data, if they occured in-between our weather recording intervals... More about our weather records

Advertising

Rabat weather history for previous 24 hours

 ConditionsComfort  
Time TempWeatherWind HumidityBarometerVisibility
4:30 PM
Jul 24
75 °FScattered clouds.9 mph65%29.89 "Hg4 mi
4:00 PM75 °FScattered clouds.12 mph61%29.89 "Hg4 mi
3:30 PM75 °FScattered clouds.10 mph61%29.89 "Hg4 mi
3:00 PM77 °FScattered clouds.12 mph57%29.89 "Hg4 mi
2:30 PM77 °FScattered clouds.12 mph57%29.89 "Hg4 mi
2:00 PM77 °FScattered clouds.10 mph57%29.89 "Hg4 mi
1:30 PM77 °FClear.12 mph57%29.92 "Hg5 mi
1:00 PM77 °FClear.12 mph57%29.92 "Hg5 mi
12:30 PM77 °FClear.12 mph54%29.92 "Hg5 mi
11:30 AM77 °FPassing clouds.12 mph54%29.92 "HgN/A
11:00 AM75 °FScattered clouds.12 mph57%29.92 "HgN/A
10:00 AM75 °FPartly sunny.8 mph57%29.95 "HgN/A
9:30 AM73 °FPartly sunny.8 mph61%29.92 "HgN/A
9:00 AM73 °FPartly sunny.6 mph61%29.95 "HgN/A
8:30 AM72 °FMild.8 mph69%29.95 "HgN/A
8:00 AM72 °FPartly sunny.6 mph65%29.95 "HgN/A
7:30 AM70 °FPartly sunny.5 mph73%29.92 "HgN/A
7:00 AM68 °FPartly sunny.2 mph83%29.92 "HgN/A
6:30 AM64 °FPartly sunny.5 mph88%29.92 "Hg3 mi
6:00 AM64 °FPartly sunny.3 mph88%29.92 "Hg3 mi
5:30 AM64 °FPassing clouds.3 mph83%29.92 "Hg3 mi
5:00 AM64 °FPassing clouds.3 mph88%29.92 "Hg4 mi
4:30 AM66 °FPassing clouds.3 mph83%29.92 "Hg5 mi
4:00 AM64 °FPassing clouds.3 mph88%29.89 "Hg5 mi
3:00 AM66 °FPassing clouds.2 mph83%29.92 "Hg5 mi
2:00 AM68 °FPassing clouds.6 mph78%29.92 "Hg5 mi
1:30 AM68 °FPassing clouds.6 mph78%29.92 "Hg5 mi
1:00 AM70 °FPassing clouds.6 mph78%29.95 "Hg5 mi
12:30 AM70 °FPassing clouds.7 mph73%29.95 "Hg5 mi
12:00 AM70 °FPassing clouds.8 mph78%29.95 "Hg5 mi
11:00 PM
Jul 23
70 °FPassing clouds.6 mph78%29.98 "Hg5 mi
10:30 PM70 °FPassing clouds.5 mph78%29.98 "Hg6 mi
10:00 PM70 °FPassing clouds.6 mph78%29.98 "Hg6 mi
9:00 PM70 °FPassing clouds.6 mph78%29.98 "Hg6 mi
8:30 PM70 °FPassing clouds.7 mph78%29.95 "Hg6 mi
7:30 PM72 °FPartly sunny.6 mph73%29.95 "Hg6 mi
6:30 PM72 °FOvercast.8 mph73%29.95 "Hg6 mi
6:00 PM73 °FOvercast.10 mph69%29.92 "Hg6 mi
5:30 PM73 °FMild.12 mph69%29.92 "Hg6 mi
5:00 PM73 °FPartly sunny.10 mph69%29.92 "Hg5 mi
Weather by CustomWeather, © 2014

See weather overviewHow to use our weather pages